カタログに戻る

STARLINK-32481

運用中通信VLEO
NORAD 62320·PAYLOAD·🇺🇸 United States

打ち上げ Dec 13, 2024 から Vandenberg Space Force Base

Loading…

次のパス (今後24時間)

TLE

最新Source: CelesTrak SupGP

元期: Sep 14, 2026, 21:07 UTC

1 62320C 24239V   26257.88034722  .00028786  00000+0  85060-3 0  2578
2 62320  53.1603  21.6390 0001200  83.3848 149.6940 15.34371597    10

AllMySatでSTARLINK-32481をリアルタイム追跡

Download on the App Store